Location: Haliburton Scout Reserve
(45.0900°N, 78.3200°W)
Time: 01:44:50
(UTC-04:00)

DIWATA 2B (PO-101) - Pass Details

Date: 26 May 2022
Orbit: 585 x 597 km, 98.0° (Epoch: 27 June)

Event Time Altitude Azimuth Distance (km) Brightness Sun altitude
Exits shadow 03:52:04 22° 238° (WSW) 1,288 ? -14.2°
Maximum altitude 03:53:14 26° 265° (W) 1,185 ? -14.1°
Drops below altitude 10° 03:56:44 10° 322° (NW) 1,923 ? -13.7°
Sets 03:59:13 0° 336° (NNW) 2,832 ? -13.4°
